RH
20 18 15 14 10 7 7 6 6 6 5 5 5 5 4 4 5 7 7 5 4 4 4 8 18 27 37 46 47 50 62 61 57 43 40 41 40 39 43 46 33 34 32 36 42
19 17 14 11 12 9 6 6 6 6 5 5 5 5 5 5 10 9 7 5 4 4 4 8 15 18 34 44 49 43 45 47 40 33 35 38 40 36 39 43 35 39 39 35 37
18 16 13 11 11 11 8 6 6 6 5 5 5 5 5 6 15 12 6 5 4 4 6 8 16 27 36 41 46 37 30 30 27 25 31 40 42 45 38 33 33 33 36 33 34
15 16 14 12 9 9 8 6 6 5 5 5 5 5 4 9 20 12 5 4 4 4 7 9 25 29 34 43 39 40 33 29 22 20 24 28 38 41 36 28 30 31 34 35 37
13 14 13 12 12 8 8 6 5 5 5 5 5 4 4 7 13 11 6 5 5 5 7 10 21 25 30 38 35 29 29 26 22 23 21 22 29 35 32 31 32 32 35 35 39
13 12 12 12 11 9 7 6 6 5 5 5 4 4 4 8 8 8 5 5 6 6 7 10 15 17 28 28 29 25 25 18 20 23 24 23 30 31 33 35 36 34 34 36 38
11 11 11 11 10 9 7 7 6 6 5 5 4 4 4 5 7 6 4 5 7 8 8 10 10 17 19 22 21 20 18 16 23 23 22 21 30 34 32 36 33 35 38 39 40
11 10 10 10 9 8 7 7 6 6 6 5 5 5 5 7 6 6 5 6 6 6 9 9 7 14 13 14 14 11 15 22 26 28 28 23 29 27 29 30 36 38 39 41 45
12 11 10 10 9 8 7 7 7 6 6 5 6 9 7 8 6 5 6 7 7 5 6 7 7 8 8 9 13 15 18 22 29 29 26 20 28 32 30 34 36 37 42 39 44
12 11 10 9 9 8 7 7 7 7 7 6 6 7 7 8 7 5 6 7 8 6 6 6 7 8 10 13 15 16 18 19 22 23 22 17 27 38 32 34 32 33 39 38 39
14 12 11 10 9 9 7 7 12 15 12 9 11 8 10 10 7 7 8 8 7 6 6 7 8 9 10 13 14 16 18 18 17 19 19 16 21 33 30 30 35 35 41 38 35
14 15 12 11 10 9 9 13 13 11 11 11 9 10 10 10 9 7 9 8 7 7 7 10 10 8 13 14 14 14 15 17 15 17 14 15 15 19 28 31 34 37 39 38 36
11 13 15 13 11 9 10 11 11 11 9 7 7 8 9 9 8 9 8 8 8 8 8 12 15 12 13 14 12 12 12 15 14 19 20 19 20 23 24 28 36 37 36 37 35
10 10 12 14 14 14 14 13 11 11 12 7 7 6 8 9 8 7 9 8 9 10 10 13 15 17 15 13 10 8 11 14 12 14 16 19 22 21 22 27 32 39 37 40 37
12 10 10 12 15 18 18 14 11 12 21 9 7 8 8 8 8 7 9 10 10 12 14 13 15 15 16 11 9 9 14 18 17 14 14 15 24 25 27 31 35 33 42 38 40
15 12 11 11 11 15 17 17 14 16 18 12 11 10 9 8 8 10 12 11 9 14 17 15 19 19 15 13 10 11 13 13 13 12 18 24 27 32 35 35 39 38 34 47 40
20 15 12 13 13 14 15 17 20 23 10 11 15 12 11 9 8 10 12 13 11 15 18 18 20 18 15 12 12 11 12 18 21 29 35 31 29 34 31 31 40 38 41 40 37
25 16 14 13 14 16 14 18 25 17 12 17 20 18 15 12 10 9 13 15 12 14 17 20 19 13 15 12 14 15 15 20 23 30 36 29 30 31 31 37 38 35 36 34 31
24 18 15 14 14 17 17 21 19 17 14 17 18 21 18 13 12 10 14 14 14 13 17 23 27 28 25 18 16 16 21 18 22 20 27 29 29 30 32 38 34 31 36 32 27
19 23 17 20 16 16 20 20 14 14 20 19 21 19 20 17 13 13 12 13 15 15 15 25 35 29 24 23 20 17 15 21 25 24 28 23 33 38 38 36 34 39 38 39 32
17 29 27 21 18 19 20 17 14 21 26 23 23 23 21 22 18 16 16 15 18 17 18 28 33 32 27 26 23 18 15 16 20 24 28 28 39 35 36 36 43 47 60 32 33
19 31 34 30 20 19 18 17 15 27 24 26 23 22 22 23 26 22 17 19 22 20 23 23 29 34 33 28 25 21 20 28 33 26 26 29 41 37 39 48 52 51 62 52 41
22 36 31 33 29 19 18 17 16 24 21 26 23 22 21 26 29 25 20 20 21 24 28 31 29 29 30 28 26 26 23 23 30 32 31 35 43 40 46 58 59 59 51 62 56
29 40 32 29 31 26 20 21 20 24 20 22 25 20 21 25 28 27 26 24 23 26 26 30 34 30 28 28 29 30 29 28 30 30 25 25 31 43 42 44 50 54 65 64 59
30 46 50 39 29 30 27 23 25 25 24 23 22 20 19 20 29 28 27 27 25 25 26 28 30 29 27 25 29 28 32 32 30 27 28 26 40 43 40 38 39 38 40 48 58
32 38 38 43 34 33 38 30 29 26 28 25 23 22 20 19 25 30 32 34 31 26 24 24 29 26 27 24 24 25 27 31 28 24 25 39 43 45 45 38 31 31 30 40 46
23 22 36 42 34 29 31 36 32 28 28 26 25 25 28 32 29 29 30 28 30 32 28 25 29 27 28 23 23 25 27 31 33 31 27 25 35 48 50 46 43 38 34 41 48